| time (UTC) | temp F | wind direction | speed MPH | gust MPH | rain 1hr in | rain 24hr in | rain mn in | humidity % | barometer mb |
| 20260505014203 | 69 | 75 | 1.0 | 2.0 | 0.16 | 0.30 | 0.29 | 93 | 1015.8 |
| 20260505013703 | 69 | 62 | 2.0 | 3.0 | 0.16 | 0.29 | 0.28 | 92 | 1015.7 |
| 20260505013203 | 69 | 53 | 2.0 | 3.0 | 0.16 | 0.28 | 0.28 | 92 | 1015.8 |
| 20260505012703 | 69 | 54 | 2.0 | 3.0 | 0.15 | 0.27 | 0.26 | 92 | 1015.8 |
| 20260505012203 | 69 | 13 | 1.0 | 2.0 | 0.14 | 0.26 | 0.25 | 92 | 1015.8 |
| 20260505011703 | 70 | 16 | 1.0 | 3.0 | 0.14 | 0.24 | 0.24 | 92 | 1015.9 |
| 20260505011203 | 70 | 66 | 0.0 | 2.0 | 0.17 | 0.24 | 0.23 | 92 | 1015.7 |
| 20260505010703 | 70 | 73 | 1.0 | 3.0 | 0.17 | 0.22 | 0.21 | 92 | 1015.8 |
| 20260505010203 | 70 | 47 | 0.0 | 2.0 | 0.20 | 0.20 | 0.20 | 91 | 1015.7 |
| 20260505005703 | 70 | 56 | 0.0 | 2.0 | 0.18 | 0.19 | 0.18 | 91 | 1015.8 |
| 20260505004703 | 70 | 31 | 1.0 | 2.0 | 0.15 | 0.16 | 0.15 | 90 | 1015.8 |
| 20260505004203 | 70 | 15 | 0.0 | 3.0 | 0.13 | 0.14 | 0.13 | 91 | 1015.7 |
| 20260505003703 | 70 | 16 | 1.0 | 3.0 | 0.13 | 0.13 | 0.13 | 90 | 1015.6 |
| 20260505003203 | 70 | 68 | 1.0 | 3.0 | 0.12 | 0.13 | 0.12 | 90 | 1015.6 |
| 20260505002703 | 70 | 43 | 1.0 | 3.0 | 0.11 | 0.12 | 0.11 | 90 | 1015.4 |
| 20260505002203 | 71 | 45 | 1.0 | 3.0 | 0.11 | 0.12 | 0.11 | 90 | 1015.3 |
| 20260505001204 | 71 | 126 | 2.0 | 6.0 | 0.06 | 0.07 | 0.06 | 88 | 1015.3 |
| 20260505000703 | 71 | 98 | 3.0 | 7.0 | 0.04 | 0.05 | 0.04 | 86 | 1015.2 |
| 20260505000204 | 72 | 69 | 2.0 | 3.0 | 0.00 | 0.01 | 0.00 | 85 | 1015.3 |
| 20260504235703 | 72 | 78 | 0.0 | 2.0 | 0.00 | 0.01 | 0.00 | 85 | 1015.1 |
| 20260504235203 | 71 | 68 | 0.0 | 1.0 | 0.00 | 0.01 | 0.00 | 85 | 1015.2 |
| 20260504234704 | 71 | 69 | 1.0 | 2.0 | 0.00 | 0.01 | 0.00 | 85 | 1015.0 |
| 20260504234203 | 71 | 73 | 1.0 | 3.0 | 0.00 | 0.01 | 0.00 | 85 | 1014.9 |
| 20260504233703 | 71 | 57 | 1.0 | 3.0 | 0.00 | 0.01 | 0.00 | 85 | 1014.9 |
| 20260504233204 | 71 | 90 | 2.0 | 7.0 | 0.00 | 0.01 | 0.00 | 85 | 1014.8 |
| 20260504232703 | 71 | 75 | 1.0 | 5.0 | 0.00 | 0.01 | 0.00 | 86 | 1014.8 |
| 20260504232203 | 71 | 87 | 1.0 | 3.0 | 0.00 | 0.01 | 0.00 | 86 | 1014.7 |
| 20260504231703 | 71 | 69 | 0.0 | 2.0 | 0.00 | 0.01 | 0.00 | 86 | 1014.8 |
| 20260504231203 | 71 | 1 | 2.0 | 3.0 | 0.00 | 0.01 | 0.00 | 86 | 1014.7 |
| 20260504230703 | 71 | 158 | 4.0 | 12.0 | 0.00 | 0.01 | 0.00 | 86 | 1014.6 |
| 20260504230204 | 71 | 87 | 3.0 | 12.0 | 0.00 | 0.01 | 0.00 | 86 | 1014.5 |
| 20260504225703 | 71 | 105 | 3.0 | 8.0 | 0.00 | 0.01 | 0.00 | 86 | 1014.4 |
| 20260504225204 | 71 | 90 | 4.0 | 12.0 | 0.00 | 0.01 | 0.00 | 85 | 1014.4 |
| 20260504224203 | 71 | 64 | 2.0 | 5.0 | 0.00 | 0.01 | 0.00 | 85 | 1014.6 |
| 20260504223704 | 71 | 65 | 1.0 | 6.0 | 0.00 | 0.01 | 0.00 | 84 | 1014.4 |
| 20260504223203 | 72 | 64 | 3.0 | 6.0 | 0.00 | 0.01 | 0.00 | 85 | 1014.4 |
| 20260504222704 | 71 | 87 | 2.0 | 3.0 | 0.00 | 0.01 | 0.00 | 85 | 1014.5 |
| 20260504222203 | 71 | 48 | 3.0 | 5.0 | 0.00 | 0.01 | 0.00 | 84 | 1014.4 |
| 20260504221203 | 72 | 90 | 2.0 | 7.0 | 0.00 | 0.01 | 0.00 | 83 | 1014.4 |
| 20260504220703 | 73 | 64 | 2.0 | 7.0 | 0.00 | 0.01 | 0.00 | 82 | 1014.4 |
| 20260504220203 | 73 | 114 | 2.0 | 6.0 | 0.00 | 0.01 | 0.00 | 81 | 1014.3 |
| 20260504215703 | 73 | 42 | 2.0 | 7.0 | 0.00 | 0.01 | 0.00 | 81 | 1014.2 |
| 20260504215204 | 73 | 74 | 3.0 | 8.0 | 0.00 | 0.01 | 0.00 | 81 | 1014.1 |
| 20260504213703 | 73 | 57 | 2.0 | 7.0 | 0.00 | 0.01 | 0.00 | 81 | 1014.4 |
| 20260504213204 | 73 | 77 | 3.0 | 8.0 | 0.00 | 0.01 | 0.00 | 81 | 1014.3 |
| 20260504212703 | 73 | 81 | 3.0 | 8.0 | 0.00 | 0.01 | 0.00 | 81 | 1014.3 |
| 20260504212203 | 73 | 87 | 2.0 | 6.0 | 0.00 | 0.01 | 0.00 | 82 | 1014.1 |
| 20260504211703 | 73 | 90 | 2.0 | 7.0 | 0.00 | 0.01 | 0.00 | 81 | 1014.0 |
| 20260504211204 | 73 | 48 | 2.0 | 6.0 | 0.00 | 0.01 | 0.00 | 81 | 1014.1 |
| 20260504210704 | 73 | 112 | 2.0 | 8.0 | 0.00 | 0.01 | 0.00 | 81 | 1014.1 |
| 20260504210204 | 73 | 133 | 4.0 | 12.0 | 0.00 | 0.01 | 0.00 | 81 | 1014.0 |
| 20260504205204 | 73 | 86 | 4.0 | 8.0 | 0.00 | 0.01 | 0.00 | 82 | 1014.2 |
| 20260504204703 | 73 | 67 | 2.0 | 8.0 | 0.00 | 0.01 | 0.00 | 82 | 1014.2 |
| 20260504204203 | 73 | 53 | 3.0 | 6.0 | 0.00 | 0.01 | 0.00 | 82 | 1014.1 |
| 20260504203704 | 73 | 108 | 3.0 | 10.0 | 0.00 | 0.01 | 0.00 | 82 | 1014.1 |
| 20260504203203 | 73 | 81 | 3.0 | 7.0 | 0.00 | 0.01 | 0.00 | 82 | 1014.1 |
| 20260504202704 | 73 | 27 | 3.0 | 5.0 | 0.00 | 0.01 | 0.00 | 82 | 1014.2 |
| 20260504202203 | 73 | 97 | 5.0 | 9.0 | 0.00 | 0.01 | 0.00 | 82 | 1014.1 |
| 20260504201204 | 73 | 66 | 3.0 | 9.0 | 0.00 | 0.01 | 0.00 | 82 | 1014.1 |
| 20260504200703 | 73 | 55 | 3.0 | 12.0 | 0.00 | 0.01 | 0.00 | 82 | 1014.0 |
| 20260504200204 | 73 | 74 | 5.0 | 12.0 | 0.00 | 0.01 | 0.00 | 82 | 1014.0 |
| 20260504195704 | 73 | 79 | 5.0 | 10.0 | 0.00 | 0.01 | 0.00 | 82 | 1013.9 |
| 20260504195203 | 73 | 64 | 5.0 | 10.0 | 0.00 | 0.01 | 0.00 | 82 | 1013.7 |
| 20260504194703 | 73 | 90 | 5.0 | 10.0 | 0.00 | 0.01 | 0.00 | 82 | 1013.9 |
| 20260504194203 | 73 | 61 | 2.0 | 9.0 | 0.00 | 0.01 | 0.00 | 83 | 1014.0 |
| 20260504193704 | 73 | 95 | 0.0 | 5.0 | 0.00 | 0.01 | 0.00 | 83 | 1014.0 |
| 20260504193203 | 73 | 66 | 3.0 | 7.0 | 0.00 | 0.01 | 0.00 | 83 | 1014.0 |
| 20260504192703 | 73 | 94 | 5.0 | 9.0 | 0.00 | 0.01 | 0.00 | 83 | 1014.0 |
| 20260504192203 | 73 | 63 | 2.0 | 12.0 | 0.00 | 0.01 | 0.00 | 83 | 1014.0 |
| 20260504191704 | 73 | 62 | 4.0 | 9.0 | 0.00 | 0.01 | 0.00 | 83 | 1014.0 |
| 20260504191203 | 73 | 125 | 5.0 | 13.0 | 0.00 | 0.01 | 0.00 | 83 | 1014.1 |
| 20260504190704 | 73 | 78 | 3.0 | 10.0 | 0.00 | 0.01 | 0.00 | 84 | 1014.2 |
| 20260504190204 | 73 | 62 | 3.0 | 10.0 | 0.00 | 0.01 | 0.00 | 84 | 1014.1 |
| 20260504185704 | 73 | 59 | 5.0 | 12.0 | 0.00 | 0.01 | 0.00 | 83 | 1014.0 |
| 20260504184703 | 74 | 65 | 2.0 | 10.0 | 0.00 | 0.01 | 0.00 | 83 | 1014.0 |
| 20260504184204 | 74 | 88 | 4.0 | 8.0 | 0.00 | 0.01 | 0.00 | 83 | 1014.1 |
| 20260504183704 | 74 | 67 | 5.0 | 9.0 | 0.00 | 0.01 | 0.00 | 83 | 1014.1 |
| 20260504182703 | 74 | 70 | 5.0 | 10.0 | 0.00 | 0.01 | 0.00 | 83 | 1014.4 |
| 20260504182204 | 74 | 91 | 2.0 | 9.0 | 0.00 | 0.01 | 0.00 | 84 | 1014.4 |
| 20260504181704 | 74 | 63 | 3.0 | 9.0 | 0.00 | 0.01 | 0.00 | 84 | 1014.4 |
| 20260504181203 | 74 | 72 | 2.0 | 12.0 | 0.00 | 0.01 | 0.00 | 84 | 1014.4 |
| 20260504180703 | 74 | 87 | 7.0 | 12.0 | 0.00 | 0.01 | 0.00 | 83 | 1014.4 |
| 20260504180203 | 74 | 103 | 5.0 | 12.0 | 0.00 | 0.01 | 0.00 | 83 | 1014.6 |
| 20260504175704 | 74 | 72 | 3.0 | 9.0 | 0.00 | 0.01 | 0.00 | 83 | 1014.9 |
| 20260504174703 | 74 | 87 | 3.0 | 10.0 | 0.00 | 0.01 | 0.00 | 83 | 1015.1 |
| 20260504173703 | 74 | 81 | 3.0 | 6.0 | 0.00 | 0.01 | 0.00 | 83 | 1015.2 |
| 20260504173204 | 74 | 68 | 2.0 | 6.0 | 0.00 | 0.01 | 0.00 | 83 | 1015.3 |
| 20260504172704 | 74 | 90 | 2.0 | 6.0 | 0.00 | 0.01 | 0.00 | 83 | 1015.3 |
| 20260504172203 | 74 | 65 | 2.0 | 7.0 | 0.00 | 0.01 | 0.00 | 83 | 1015.3 |
| 20260504171704 | 74 | 69 | 2.0 | 6.0 | 0.00 | 0.01 | 0.00 | 83 | 1015.3 |
| 20260504171204 | 74 | 81 | 2.0 | 3.0 | 0.00 | 0.01 | 0.00 | 83 | 1015.3 |
| 20260504170703 | 74 | 61 | 4.0 | 8.0 | 0.00 | 0.01 | 0.00 | 83 | 1015.4 |
| 20260504170204 | 74 | 75 | 5.0 | 10.0 | 0.00 | 0.01 | 0.00 | 83 | 1015.6 |
| 20260504150703 | 74 | 64 | 5.0 | 9.0 | 0.00 | 0.02 | 0.01 | 84 | 1016.2 |
| 20260504150204 | 75 | 79 | 1.0 | 3.0 | 0.00 | 0.02 | 0.01 | 85 | 1016.2 |
| 20260504140704 | 74 | 31 | 2.0 | 5.0 | 0.00 | 0.02 | 0.01 | 86 | 1016.0 |
| 20260504140203 | 74 | 55 | 1.0 | 6.0 | 0.00 | 0.02 | 0.01 | 86 | 1016.0 |
| 20260504130204 | 74 | 96 | 3.0 | 8.0 | 0.00 | 0.10 | 0.01 | 86 | 1015.8 |
| 20260504110703 | 75 | 49 | 0.0 | 3.0 | 0.01 | 0.21 | 0.01 | 87 | 1014.8 |
| 20260504110202 | 75 | 26 | 2.0 | 5.0 | 0.01 | 0.21 | 0.01 | 86 | 1014.9 |
| 20260504100202 | 76 | 51 | 1.0 | 3.0 | 0.00 | 0.21 | 0.00 | 86 | 1014.9 |
| 20260504081703 | 78 | 80 | 2.0 | 5.0 | 0.00 | 0.22 | 0.00 | 79 | 1014.8 |
| 20260504081202 | 78 | 65 | 1.0 | 3.0 | 0.00 | 0.22 | 0.00 | 78 | 1014.9 |
| 20260504080703 | 78 | 64 | 0.0 | 3.0 | 0.00 | 0.22 | 0.00 | 78 | 1014.9 |
| 20260504080203 | 78 | 42 | 2.0 | 3.0 | 0.00 | 0.22 | 0.00 | 77 | 1014.9 |
| 20260504070203 | 80 | 295 | 1.0 | 3.0 | 0.00 | 0.22 | 0.00 | 74 | 1015.6 |
| 20260504050702 | 81 | 1 | 3.0 | 7.0 | 0.00 | 0.22 | 0.00 | 70 | 1016.1 |
| 20260504050203 | 81 | 348 | 2.0 | 6.0 | 0.00 | 0.22 | 0.00 | 70 | 1016.1 |
| 20260504045703 | 82 | 25 | 1.0 | 3.0 | 0.00 | 0.22 | 0.00 | 69 | 1016.1 |
| 20260504045203 | 83 | 85 | 2.0 | 3.0 | 0.00 | 0.22 | 0.00 | 68 | 1016.1 |
| 20260504044703 | 83 | 337 | 2.0 | 5.0 | 0.00 | 0.22 | 0.00 | 69 | 1016.1 |
| 20260504044203 | 82 | 28 | 1.0 | 3.0 | 0.00 | 0.22 | 0.00 | 68 | 1016.2 |
| 20260504043703 | 82 | 25 | 3.0 | 6.0 | 0.00 | 0.22 | 0.00 | 69 | 1016.2 |
| 20260504043203 | 82 | 71 | 1.0 | 3.0 | 0.00 | 0.22 | 0.00 | 70 | 1016.3 |
| 20260504042203 | 81 | 343 | 1.0 | 5.0 | 0.00 | 0.22 | 0.00 | 71 | 1016.2 |
| 20260504041703 | 80 | 23 | 1.0 | 5.0 | 0.00 | 0.22 | 0.00 | 72 | 1016.4 |
| 20260504041203 | 80 | 46 | 2.0 | 3.0 | 0.00 | 0.22 | 0.00 | 72 | 1016.4 |
| 20260504040702 | 78 | 87 | 1.0 | 3.0 | 0.00 | 0.22 | 0.00 | 73 | 1016.5 |
| 20260504040203 | 78 | 352 | 1.0 | 3.0 | 0.00 | 0.22 | 0.00 | 74 | 1016.5 |
| 20260504035203 | 78 | 349 | 0.0 | 3.0 | 0.00 | 0.22 | 0.00 | 73 | 1016.5 |
| 20260504033703 | 78 | 7 | 1.0 | 3.0 | 0.00 | 0.22 | 0.00 | 73 | 1016.6 |
| 20260504031703 | 79 | 341 | 2.0 | 3.0 | 0.00 | 0.22 | 0.00 | 71 | 1016.4 |
| 20260504031202 | 79 | 66 | 2.0 | 3.0 | 0.00 | 0.22 | 0.00 | 71 | 1016.5 |
| 20260504030703 | 78 | 232 | 0.0 | 2.0 | 0.00 | 0.22 | 0.00 | 72 | 1016.7 |
| 20260504030203 | 78 | 7 | 1.0 | 3.0 | 0.00 | 0.22 | 0.00 | 72 | 1016.6 |
| 20260504025703 | 78 | 56 | 1.0 | 5.0 | 0.00 | 0.22 | 0.00 | 72 | 1016.7 |
| 20260504025203 | 78 | 98 | 3.0 | 5.0 | 0.00 | 0.22 | 0.00 | 71 | 1016.9 |
| 20260504024704 | 78 | 121 | 2.0 | 3.0 | 0.00 | 0.22 | 0.00 | 71 | 1016.9 |
| 20260504023703 | 78 | 319 | 2.0 | 3.0 | 0.00 | 0.22 | 0.00 | 70 | 1017.0 |
| 20260504023203 | 78 | 44 | 3.0 | 7.0 | 0.00 | 0.22 | 0.00 | 71 | 1016.8 |
| 20260504021703 | 79 | 357 | 1.0 | 3.0 | 0.00 | 0.22 | 0.00 | 70 | 1016.8 |
| 20260504021203 | 78 | 109 | 1.0 | 6.0 | 0.00 | 0.22 | 0.00 | 72 | 1016.7 |
| 20260504020703 | 78 | 279 | 2.0 | 6.0 | 0.00 | 0.22 | 0.00 | 71 | 1016.7 |
| 20260504015703 | 77 | 67 | 3.0 | 8.0 | 0.00 | 0.22 | 0.00 | 71 | 1016.6 |
| 20260504015203 | 77 | 73 | 2.0 | 5.0 | 0.00 | 0.22 | 0.00 | 72 | 1016.5 |